Weather Roundup
Issued by NWS

Home | Current Version | Previous Version | Graphics & Text | Print | Product List | Glossary Off
Versions: 1 2 3 4 5 6 7 8 9 10 11 12 13 14 15 16 17 18 19 20 21 22 23 24 25 26 27 28 29 30 31 32 33 34 35 36 37 38 39 40 41 42 43 44 45 46 47 48 49 50

000
NZUS93 KARX 221759
HRRWXR

CURRENT HOURLY OBSERVATIONS ACROSS
MUCH OF THE UPPER MISSISSIPPI VALLEY
NATIONAL WEATHER SERVICE LA CROSSE WI
100 PM CDT SAT APR 22 2017


...SOUTHEAST MINNESOTA...


CITY           SKY/WX    TMP DP  RH WIND       PRES   REMARKS
ROCHESTER      SUNNY     63  36  36 NE8       30.24F
ROCHESTER/MAYO FAIR      62  31  31 W6        30.23F
WINONA         SUNNY     61  19  20 CALM      30.23F
AUSTIN         SUNNY     61  30  31 N8        30.23F
ALBERT LEA     SUNNY     61  25  25 NE3       30.24S
DODGE CENTER   SUNNY     61  32  33 NW6       30.23F
PRESTON        SUNNY     58  28  31 N9        30.23F
OWATONNA       SUNNY     63  30  29 W3        30.23F
FARIBAULT      SUNNY     63  32  31 SW7       30.23F
$$

...ELSEWHERE IN MINNESOTA...


CITY           SKY/WX    TMP DP  RH WIND       PRES   REMARKS
MINNEAPOLIS    SUNNY     66  34  30 NW12G17   30.21F
INTNL FALLS    CLOUDY    56  37  49 NW17G30   30.07R
DULUTH         MOSUNNY   64  37  36 SW17G26   30.12F
RED WING       SUNNY     64  25  22 W3        30.21F
REDWOOD FALLS  SUNNY     63  35  35 S7G17     30.23F
MANKATO        MOSUNNY   62  33  33 SW9       30.24F
WORTHINGTON    SUNNY     61  34  36 VRB3      30.25F
FAIRMONT       SUNNY     62  32  32 NW7       30.25F
$$

...SOUTHWEST WISCONSIN...


CITY           SKY/WX    TMP DP  RH WIND       PRES   REMARKS
LA CROSSE      SUNNY     64  21  19 MISG      30.23F
PRAIRIE DU CHI SUNNY     59  28  31 CALM      30.23F
BOSCOBEL       SUNNY     62  25  24 VRB3      30.22F
LONE ROCK      NOT AVBL
PLATTEVILLE    SUNNY     58  31  35 CALM      30.23F
FORT MC COY    SUNNY     60  26  27 S5        30.23F
MAUSTON-NEW LI CLEAR     57  25  29 S3        30.22F
VIROQUA        FAIR      57  24  27 CALM      30.23F
WIS DELLS      SUNNY     58  22  25 CALM      30.23F
$$

...ELSEWHERE IN WISCONSIN...


CITY           SKY/WX    TMP DP  RH WIND       PRES   REMARKS
MILWAUKEE      MOSUNNY   53  27  36 NE8       30.22F
MADISON        MOSUNNY   58  27  30 VRB5      30.22S
GREEN BAY      SUNNY     60  35  39 NW7       30.20F
EAU CLAIRE     SUNNY     62  27  26 CALM      30.21F
BLACK RVR FLS  FAIR      62  17  17 N6        30.22F
MEDFORD        SUNNY     57  31  37 SW3       30.21F
WAUSAU         SUNNY     60  27  28 NW7       30.19F
WIS RAPIDS     SUNNY     60  25  26 VRB3      30.22F
MARSHFIELD     SUNNY     59  28  30 W6        30.20F
RICE LAKE      SUNNY     62  30  29 W13G18    30.22F
$$

...NORTHEAST IOWA...


CITY           SKY/WX    TMP DP  RH WIND       PRES   REMARKS
WATERLOO       SUNNY     61  29  29 MISG      30.22F
DUBUQUE        SUNNY     60  33  36 NE8       30.22F
DECORAH        SUNNY     59  28  31 VRB6      30.22F
MASON CITY     SUNNY     63  32  31 N10       30.25F
CHARLES CITY   SUNNY     59  25  27 VRB7G13   30.24F
OELWEIN        SUNNY     59  30  33 NE6       30.23F
$$

...ELSEWHERE IN IOWA...


CITY           SKY/WX    TMP DP  RH WIND       PRES   REMARKS
DES MOINES     PTSUNNY   63  32  31 NE13G21   30.23F
IOWA CITY      SUNNY     61  32  33 NE9       30.23F
FORT DODGE     SUNNY     63  32  31 NE3       30.25F
MARSHALLTOWN   SUNNY     62  29  28 N12       30.22F
CEDAR RAPIDS   SUNNY     60  30  32 NE8G18    30.22S
$$

...NORTHERN ILLINOIS...


CITY           SKY/WX    TMP DP  RH WIND       PRES   REMARKS
CHICAGO-OHARE  PTSUNNY   56  26  31 NE13      30.20F
CHICAGO-MIDWAY PTSUNNY   56  29  35 NE16G23   30.20S
MOLINE         SUNNY     60  33  36 E13G23    30.20F
ROCKFORD       MOSUNNY   61  32  33 NE14      30.21F
PEORIA         SUNNY     59  37  44 E14G24    30.17F
$$

NOTE: "FAIR" INDICATES FEW OR NO CLOUDS BELOW 12,000 FEET WITH NO
SIGNIFICANT WEATHER AND/OR OBSTRUCTIONS TO VISIBILITY. WIND
SPEEDS ARE IN MILES-PER-HOUR.




USA.gov is the U.S. government's official web portal to all federal, state and local government web resources and services.